Regional Weather Roundup
Issued by NWS Sioux Falls, SD

Home | Current Version | Previous Version | Graphics & Text | Print | Product List | Glossary On
Versions: 1 2 3 4 5 6 7 8 9 10 11 12 13 14 15 16 17 18 19 20 21 22 23 24 25 26 27 28 29 30 31 32 33 34 35 36 37 38 39 40 41 42 43 44 45 46 47 48 49 50
000
ASUS43 KFSD 270702
RWRFSD

WEATHER ROUNDUP FOR SE SOUTH DAKOTA/SW MINNESOTA/NW IOWA
NATIONAL WEATHER SERVICE SIOUX FALLS SD
200 AM CDT WED AUG 27 2014

NOTE: "FAIR" INDICATES FEW OR NO CLOUDS BELOW 12,000 FEET WITH NO
SIGNIFICANT WEATHER AND OR OBSTRUCTIONS TO VISIBILITY.


SDZ038>040-050-052>070-270800-
SOUTHEAST SOUTH DAKOTA

CITY           SKY/WX    TMP DP  RH WIND       PRES   REMARKS
CHAMBERLAIN    PTCLDY    61  58  91 SE9       30.14S
HURON          PTCLDY    60  57  89 SE6       30.15S
MADISON        FAIR      55  55 100 SE5       30.18F
MITCHELL       PTCLDY    60  58  92 SE5       30.15F
SIOUX FALLS    PTCLDY    60  57  89 NE3       30.18S
WINNER         FAIR      63  60  90 SE10      30.12S
YANKTON        CLEAR     59  57  94 NE5       30.14F
$$

MNZ071-072-080-081-089-090-097-098-270800-
SOUTHWEST MINNESOTA

CITY           SKY/WX    TMP DP  RH WIND       PRES   REMARKS
FAIRMONT       MOCLDY    57  54  88 CALM      30.17F
JACKSON        MOCLDY    57  54  88 CALM      30.19S
LUVERNE        PTCLDY    61  55  82 CALM      30.19F
MARSHALL       CLOUDY    61  55  82 CALM      30.19S
MONTEVIDEO     CLOUDY    61  57  88 CALM      30.21S
PIPESTONE      PTCLDY    61  55  82 CALM      30.20R
REDWOOD FALLS  CLOUDY    63  58  83 NE5       30.19R
TRACY          CLOUDY    62  59  91 CALM      30.20S
WINDOM         MOCLDY    63  57  82 CALM      30.19S
WORTHINGTON    MOCLDY    57  55  94 N3        30.19F
$$

IAZ001>003-012>014-020>022-031-032-NEZ013-014-SDZ071-270800-
NORTHWEST IOWA

CITY           SKY/WX    TMP DP  RH WIND       PRES   REMARKS
CHEROKEE       PTCLDY    58  58 100 NE3       30.16S
DENISON        MOCLDY    64  64 100 NE5       30.14S
ESTHERVILLE    CLEAR     56  54  93 NE6       30.17F
LE MARS        PTCLDY    61  59  94 N5        30.16S
ORANGE CITY    CLEAR     63  57  82 E3        30.17R
SHELDON        CLEAR     57  57 100 NE5       30.16S
SIOUX CITY     MOCLDY    65  61  87 NE3       30.15S
SPENCER        CLEAR     57  54  89 E3        30.17F
STORM LAKE     PTCLDY    61  61 100 NE7       30.16F
$$

ABBREVIATIONS USED IN REMARKS
   TC - TEMPERATURE IN CELSIUS
  WCI - WIND CHILL INDEX
   HX - HEAT INDEX
  VSB - VISIBILITY



USA.gov is the U.S. government's official web portal to all federal, state and local government web resources and services.